This demonstration page uses our WeatherBlox Daily Observations layout. Learn more.

Left ArrowRight Arrow

39.08367, -84.50855

Hourly Observations for November 28, 2021

Temp ( °F °C ) Dew Point ( °F °C ) Humidity (%) Winds ( mph kmh ) Pressure ( in mb ) Visibility ( mi km ) Precip ( " mm )
12:53 am 00:53 Clear 39 3.9 32 undefined 76 76 VRB 3 6 29.89 1012 10 16 N/A
1:53 am 01:53 Clear 42 5.6 33 0.6 71 71 W 3 6 29.89 1012 10 16 N/A
2:53 am 02:53 Clear 41 5 33 0.6 73 73 WSW 5 7 29.91 1013 10 16 N/A
3:53 am 03:53 Clear 41 5 34 1.1 76 76 W 5 7 29.93 1014 10 16 N/A
4:53 am 04:53 Clear 40 4.4 33 0.6 77 77 NW 6 9 29.96 1014 10 16 N/A
5:53 am 05:53 Clear 37 2.8 33 0.6 86 86 NNW 7 11 29.97 1015 10 16 N/A
6:33 am 06:33 Mostly Cloudy 37 2.8 33 0.6 86 86 NNW 8 13 30.01 1016 10 16 N/A
6:53 am 06:53 Cloudy 37 2.8 33 0.6 86 86 WNW 10 17 30.01 1016 10 16 N/A
7:53 am 07:53 Cloudy 37 2.8 33 0.6 86 86 NW 8 13 30.01 1016 10 16 N/A
8:53 am 08:53 Cloudy 38 3.3 33 0.6 83 83 VRB 6 9 30.02 1017 10 16 N/A
9:53 am 09:53 Cloudy 38 3.3 33 0.6 83 83 WSW 8 13 30.03 1017 10 16 N/A
10:53 am 10:53 Cloudy 38 3.3 32 undefined 79 79 WSW 9 15 30.05 1018 10 16 N/A
11:53 am 11:53 Mostly Cloudy 43 6.1 32 undefined 65 65 W 12 19 30.02 1017 10 16 N/A
12:00 pm 12:00 Sunny 43 6.1 32 undefined 65 65 W 12 19 30.03 1017 10 16 N/A
12:53 pm 12:53 Sunny 45 7.2 32 undefined 61 61 W 12 19 29.99 1016 10 16 N/A
1:53 pm 13:53 Sunny 46 7.8 24 -4.4 42 42 W 15 24 29.98 1015 10 16 N/A
2:53 pm 14:53 Sunny 45 7.2 24 -4.4 44 44 W 14 22 29.97 1015 10 16 N/A
3:53 pm 15:53 Sunny 46 7.8 19 -7.2 34 34 NW 13 20 29.99 1016 10 16 N/A
4:53 pm 16:53 Sunny 44 6.7 17 -8.3 34 34 WNW 12 19 30.01 1016 10 16 N/A
5:53 pm 17:53 Clear 41 5 19 -7.2 41 41 NNW 10 17 30.05 1018 10 16 N/A
6:53 pm 18:53 Clear 37 2.8 21 -6.1 52 52 NW 16 26 30.10 1019 10 16 N/A
7:53 pm 19:53 Clear 36 2.2 20 -6.7 52 52 NNW 12 19 30.11 1020 10 16 N/A
8:53 pm 20:53 Clear 34 1.1 20 -6.7 56 56 VRB 6 9 30.13 1020 10 16 N/A
9:53 pm 21:53 Clear 33 0.6 21 -6.1 61 61 VRB 5 7 30.15 1021 10 16 N/A
10:53 pm 22:53 Clear 33 0.6 19 -7.2 56 56 VRB 6 9 30.15 1021 10 16 N/A
11:53 pm 23:53 Clear 29 -1.7 19 -7.2 66 66 N N/A 30.16 1021 10 16 N/A

Powered by AerisWeather